Location: Larrial
(48.2758°N, 4.5331°W)
Time: 23:16:38
(UTC+00:00)

AAUSAT CUBESAT 2 - Pass Details

Date: 01 December 2021
Orbit: 571 x 586 km, 97.5° (Epoch: 19 January)

Event Time Altitude Azimuth Distance (km) Brightness Sun altitude
Rises 17:40:32 0° 207° (SSW) 2,771 ? -11.9°
Reaches altitude 10° 17:43:19 10° 228° (SW) 1,878 ? -12.4°
Maximum altitude 17:46:00 17° 269° (W) 1,483 ? -12.8°
Drops below altitude 10° 17:48:42 10° 311° (NW) 1,886 ? -13.2°
Sets 17:51:31 0° 332° (NNW) 2,790 ? -13.6°
